Terug naar catalogus

CZ-4B DEB

ActiefLEO
NORAD 43431·DEBRIS·🇨🇳 China

Gelanceerd Jun 15, 2017 vanaf Jiuquan Satellite Launch Center

Loading…

Volgende Passages (komende 24 uur)

TLE

VersSource: Space-Track

Epoch: Sep 14, 2026, 00:34 UTC

1 43431U 17034G   26257.02364485  .00014055  00000-0  87639-3 0  9995
2 43431  43.0765 243.9016 0109442  65.3073 295.9120 15.04518151493534

Volg CZ-4B DEB in realtime met AllMySat

Download on the App Store